Stündliche Wetter Barlad

Heute, 28 Oktober, Mittwoch

Zeit Temperatur Niederschläge Wind Luftdruck Luftfeuchtigkeit
00:00 +13°C° 0 mm 1 m/S 750 mmHg 89%
01:00 +11°C° 0 mm 0 m/S 750 mmHg 89%
02:00 +11°C° 0 mm 0 m/S 751 mmHg 90%
03:00 +11°C° 0 mm 0 m/S 750 mmHg 90%
04:00 +11°C° 0 mm 0 m/S 750 mmHg 91%
05:00 +10°C° 0 mm 0 m/S 750 mmHg 91%
06:00 +11°C° 0 mm 0 m/S 750 mmHg 91%
07:00 +11°C° 0 mm 0 m/S 750 mmHg 90%
08:00 +12°C° 0 mm 0 m/S 751 mmHg 89%
09:00 +13°C° 0 mm 0 m/S 751 mmHg 83%
10:00 +14°C° 0 mm 0 m/S 751 mmHg 77%
11:00 +18°C° 0 mm 1 m/S 751 mmHg 71%
12:00 +18°C° 0 mm 1 m/S 751 mmHg 68%
13:00 +19°C° 0 mm 1 m/S 750 mmHg 64%
14:00 +19°C° 0 mm 1 m/S 750 mmHg 61%
15:00 +19°C° 0 mm 1 m/S 750 mmHg 65%
16:00 +18°C° 0 mm 1 m/S 750 mmHg 68%
17:00 +16°C° 0 mm 2 m/S 750 mmHg 72%
18:00 +16°C° 0 mm 1 m/S 750 mmHg 75%
19:00 +15°C° 0 mm 1 m/S 750 mmHg 78%
20:00 +14°C° 0 mm 1 m/S 750 mmHg 81%
21:00 +13°C° 0 mm 0 m/S 750 mmHg 82%
22:00 +13°C° 0 mm 0 m/S 750 mmHg 83%
23:00 +12°C° 0 mm 0 m/S 750 mmHg 85%

Morgen, 29 Oktober, Donnerstag

Zeit Temperatur Niederschläge Wind Luftdruck Luftfeuchtigkeit
00:00 +12°C° 0 mm 0 m/S 750 mmHg 86%
01:00 +12°C° 0 mm 0 m/S 750 mmHg 87%
02:00 +11°C° 0 mm 0 m/S 750 mmHg 88%
03:00 +11°C° 0 mm 0 m/S 750 mmHg 88%
04:00 +11°C° 0 mm 0 m/S 750 mmHg 89%
05:00 +11°C° 0 mm 0 m/S 750 mmHg 89%
06:00 +11°C° 0 mm 0 m/S 750 mmHg 88%
07:00 +11°C° 0 mm 0 m/S 750 mmHg 87%
08:00 +13°C° 0 mm 1 m/S 750 mmHg 86%
09:00 +14°C° 0 mm 1 m/S 750 mmHg 79%
10:00 +16°C° 0 mm 1 m/S 750 mmHg 72%
11:00 +17°C° 0 mm 2 m/S 750 mmHg 65%
12:00 +18°C° 0 mm 2 m/S 750 mmHg 61%
13:00 +18°C° 0 mm 2 m/S 750 mmHg 57%
14:00 +19°C° 0 mm 2 m/S 749 mmHg 53%
15:00 +18°C° 0 mm 2 m/S 749 mmHg 56%
16:00 +17°C° 0 mm 2 m/S 749 mmHg 59%
17:00 +16°C° 0 mm 1 m/S 749 mmHg 63%
18:00 +15°C° 0 mm 1 m/S 750 mmHg 66%
19:00 +15°C° 0 mm 1 m/S 750 mmHg 69%
20:00 +14°C° 0 mm 1 m/S 750 mmHg 73%
21:00 +14°C° 0 mm 1 m/S 750 mmHg 74%
22:00 +13°C° 0 mm 1 m/S 750 mmHg 76%
23:00 +13°C° 0 mm 1 m/S 750 mmHg 77%

übermorgen, 30 Oktober, Freitag

Zeit Temperatur Niederschläge Wind Luftdruck Luftfeuchtigkeit
00:00 +12°C° 0 mm 1 m/S 750 mmHg 78%
01:00 +12°C° 0 mm 1 m/S 749 mmHg 79%
02:00 +12°C° 0 mm 1 m/S 749 mmHg 79%
03:00 +12°C° 0 mm 1 m/S 749 mmHg 79%
04:00 +12°C° 0 mm 1 m/S 749 mmHg 79%
05:00 +12°C° 0 mm 1 m/S 750 mmHg 78%
06:00 +12°C° 0.5 mm 1 m/S 750 mmHg 80%
07:00 +12°C° 0.5 mm 2 m/S 750 mmHg 83%
08:00 +11°C° 0.5 mm 3 m/S 750 mmHg 85%
09:00 +11°C° 0.5 mm 4 m/S 750 mmHg 84%
10:00 +10°C° 0.5 mm 5 m/S 750 mmHg 83%
11:00 +10°C° 0.5 mm 6 m/S 751 mmHg 83%
12:00 +10°C° 0.5 mm 6 m/S 751 mmHg 81%
13:00 +10°C° 0.5 mm 7 m/S 751 mmHg 79%
14:00 +9°C° 0.5 mm 7 m/S 751 mmHg 77%
15:00 +9°C° 0 mm 6 m/S 751 mmHg 74%
16:00 +9°C° 0 mm 5 m/S 751 mmHg 71%
17:00 +10°C° 0 mm 4 m/S 752 mmHg 68%
18:00 +8°C° 0 mm 4 m/S 752 mmHg 69%
19:00 +8°C° 0 mm 4 m/S 752 mmHg 71%
20:00 +7°C° 0 mm 4 m/S 753 mmHg 73%
21:00 +7°C° 0 mm 4 m/S 753 mmHg 74%
22:00 +7°C° 0 mm 3 m/S 753 mmHg 76%
23:00 +7°C° 0 mm 3 m/S 753 mmHg 77%

31 Oktober, Samstag

Zeit Temperatur Niederschläge Wind Luftdruck Luftfeuchtigkeit
00:00 +6°C° 0 mm 2 m/S 752 mmHg 78%
01:00 +6°C° 0 mm 2 m/S 752 mmHg 78%
02:00 +6°C° 0 mm 2 m/S 752 mmHg 79%
03:00 +7°C° 0 mm 1 m/S 752 mmHg 78%
04:00 +7°C° 0 mm 1 m/S 752 mmHg 77%
05:00 +8°C° 0 mm 1 m/S 751 mmHg 75%
06:00 +8°C° 0.2 mm 1 m/S 751 mmHg 77%
07:00 +8°C° 0.2 mm 1 m/S 751 mmHg 78%
08:00 +8°C° 0.2 mm 1 m/S 751 mmHg 79%
09:00 +8°C° 1 mm 1 m/S 751 mmHg 81%
10:00 +7°C° 1 mm 2 m/S 751 mmHg 83%
11:00 +7°C° 1 mm 2 m/S 751 mmHg 85%
12:00 +7°C° 0.1 mm 3 m/S 751 mmHg 84%
13:00 +8°C° 0.1 mm 3 m/S 752 mmHg 82%
14:00 +7°C° 0.1 mm 4 m/S 752 mmHg 81%
15:00 +7°C° 0.1 mm 4 m/S 752 mmHg 80%
16:00 +7°C° 0.1 mm 4 m/S 752 mmHg 79%
17:00 +7°C° 0.1 mm 4 m/S 752 mmHg 78%
18:00 +7°C° 0.1 mm 4 m/S 753 mmHg 81%
19:00 +7°C° 0.1 mm 4 m/S 753 mmHg 83%
20:00 +6°C° 0.1 mm 4 m/S 753 mmHg 85%
21:00 +7°C° 0.1 mm 5 m/S 753 mmHg 86%
22:00 +7°C° 0.1 mm 5 m/S 753 mmHg 87%
23:00 +7°C° 0.1 mm 5 m/S 753 mmHg 88%

1 November, Sonntag

Zeit Temperatur Niederschläge Wind Luftdruck Luftfeuchtigkeit
00:00 +7°C° 0.5 mm 6 m/S 754 mmHg 88%
01:00 +7°C° 0.5 mm 6 m/S 754 mmHg 88%
02:00 +8°C° 0.5 mm 7 m/S 754 mmHg 87%
03:00 +8°C° 0.1 mm 7 m/S 754 mmHg 87%
04:00 +8°C° 0.1 mm 7 m/S 754 mmHg 86%
05:00 +8°C° 0.1 mm 6 m/S 754 mmHg 85%
06:00 +8°C° 0 mm 6 m/S 754 mmHg 84%
07:00 +8°C° 0 mm 6 m/S 755 mmHg 84%
08:00 +8°C° 0 mm 6 m/S 755 mmHg 83%
09:00 +9°C° 0 mm 6 m/S 756 mmHg 79%
10:00 +10°C° 0 mm 7 m/S 756 mmHg 75%
11:00 +11°C° 0 mm 7 m/S 756 mmHg 71%
12:00 +11°C° 0.1 mm 7 m/S 756 mmHg 71%
13:00 +11°C° 0.1 mm 7 m/S 756 mmHg 71%
14:00 +11°C° 0.1 mm 7 m/S 756 mmHg 70%
15:00 +10°C° 0 mm 7 m/S 756 mmHg 73%
16:00 +10°C° 0 mm 6 m/S 756 mmHg 75%
17:00 +9°C° 0 mm 6 m/S 756 mmHg 78%
18:00 +9°C° 0 mm 6 m/S 757 mmHg 78%
19:00 +9°C° 0 mm 6 m/S 757 mmHg 78%
20:00 +9°C° 0 mm 5 m/S 757 mmHg 78%
21:00 +8°C° 0 mm 5 m/S 757 mmHg 80%
22:00 +8°C° 0 mm 4 m/S 757 mmHg 82%
23:00 +7°C° 0 mm 4 m/S 757 mmHg 84%

2 November, Montag

Zeit Temperatur Niederschläge Wind Luftdruck Luftfeuchtigkeit
00:00 +7°C° 0 mm 4 m/S 757 mmHg 84%
01:00 +8°C° 0 mm 3 m/S 757 mmHg 83%
02:00 +8°C° 0 mm 3 m/S 757 mmHg 83%
03:00 +8°C° 0 mm 3 m/S 757 mmHg 83%
04:00 +8°C° 0 mm 3 m/S 757 mmHg 83%
05:00 +8°C° 0 mm 3 m/S 757 mmHg 83%
06:00 +8°C° 0 mm 3 m/S 757 mmHg 82%
07:00 +8°C° 0 mm 3 m/S 758 mmHg 80%
08:00 +7°C° 0 mm 4 m/S 758 mmHg 79%
09:00 +10°C° 0 mm 4 m/S 758 mmHg 74%
10:00 +11°C° 0 mm 4 m/S 758 mmHg 69%
11:00 +12°C° 0 mm 5 m/S 758 mmHg 64%
12:00 +12°C° 0 mm 4 m/S 757 mmHg 62%
13:00 +13°C° 0 mm 4 m/S 757 mmHg 59%
14:00 +13°C° 0 mm 4 m/S 757 mmHg 57%
15:00 +13°C° 0 mm 4 m/S 757 mmHg 61%
16:00 +12°C° 0 mm 3 m/S 757 mmHg 65%
17:00 +11°C° 0 mm 3 m/S 757 mmHg 68%
18:00 +10°C° 0 mm 3 m/S 757 mmHg 71%
19:00 +10°C° 0 mm 3 m/S 757 mmHg 73%
20:00 +8°C° 0 mm 4 m/S 758 mmHg 75%
21:00 +9°C° 0 mm 3 m/S 758 mmHg 77%
22:00 +8°C° 0 mm 3 m/S 758 mmHg 79%
23:00 +8°C° 0 mm 3 m/S 757 mmHg 80%
Mehr zeigen